Year,Month,Day,Hour,Minute,Value (Times are PST for temperature in C)
2022,10,02,00,00,13.30
2022,10,02,00,01,13.30
2022,10,02,00,02,13.30
2022,10,02,00,03,13.30
2022,10,02,00,04,13.30
2022,10,02,00,05,13.30
2022,10,02,00,06,13.20
2022,10,02,00,07,13.20
2022,10,02,00,08,13.20
2022,10,02,00,09,13.20
2022,10,02,00,10,13.20
2022,10,02,00,11,13.20
2022,10,02,00,12,13.20
2022,10,02,00,13,13.20
2022,10,02,00,14,13.20
2022,10,02,00,15,13.20
2022,10,02,00,16,13.20
2022,10,02,00,17,13.20
2022,10,02,00,18,13.10
2022,10,02,00,19,13.10
2022,10,02,00,20,13.10
2022,10,02,00,21,13.10
2022,10,02,00,22,13.10
2022,10,02,00,23,13.10
2022,10,02,00,24,13.10
2022,10,02,00,25,13.10
2022,10,02,00,26,13.10
2022,10,02,00,27,13.10
2022,10,02,00,28,13.10
2022,10,02,00,29,13.10
2022,10,02,00,30,13.00
2022,10,02,00,31,13.00
2022,10,02,00,32,13.00
2022,10,02,00,33,13.00
2022,10,02,00,34,13.00
2022,10,02,00,35,13.00
2022,10,02,00,36,13.00
2022,10,02,00,37,13.00
2022,10,02,00,38,13.00
2022,10,02,00,39,13.00
2022,10,02,00,40,13.00
2022,10,02,00,41,12.90
2022,10,02,00,42,12.90
2022,10,02,00,43,12.90
2022,10,02,00,44,12.90
2022,10,02,00,45,12.90
2022,10,02,00,46,12.90
2022,10,02,00,47,12.90
2022,10,02,00,48,12.90
2022,10,02,00,49,12.90
2022,10,02,00,50,12.90
2022,10,02,00,51,12.90
2022,10,02,00,52,12.90
2022,10,02,00,53,12.80
2022,10,02,00,54,12.80
2022,10,02,00,55,12.80
2022,10,02,00,56,12.80
2022,10,02,00,57,12.80
2022,10,02,00,58,12.80
2022,10,02,00,59,12.80
2022,10,02,01,00,12.80
2022,10,02,01,01,12.80
2022,10,02,01,02,12.80
2022,10,02,01,03,12.80
2022,10,02,01,04,12.80
2022,10,02,01,05,12.80
2022,10,02,01,06,12.80
2022,10,02,01,07,12.80
2022,10,02,01,08,12.70
2022,10,02,01,09,12.70
2022,10,02,01,10,12.70
2022,10,02,01,11,12.70
2022,10,02,01,12,12.70
2022,10,02,01,13,12.70
2022,10,02,01,14,12.70
2022,10,02,01,15,12.70
2022,10,02,01,16,12.70
2022,10,02,01,17,12.70
2022,10,02,01,18,12.70
2022,10,02,01,19,12.70
2022,10,02,01,20,12.70
2022,10,02,01,21,12.70
2022,10,02,01,22,12.70
2022,10,02,01,23,12.60
2022,10,02,01,24,12.60
2022,10,02,01,25,12.60
2022,10,02,01,26,12.60
2022,10,02,01,27,12.60
2022,10,02,01,28,12.60
2022,10,02,01,29,12.60
2022,10,02,01,30,12.60
2022,10,02,01,31,12.60
2022,10,02,01,32,12.60
2022,10,02,01,33,12.60
2022,10,02,01,34,12.60
2022,10,02,01,35,12.60
2022,10,02,01,36,12.60
2022,10,02,01,37,12.60
2022,10,02,01,38,12.60
2022,10,02,01,39,12.60
2022,10,02,01,40,12.60
2022,10,02,01,41,12.60
2022,10,02,01,42,12.50
2022,10,02,01,43,12.50
2022,10,02,01,44,12.50
2022,10,02,01,45,12.50
2022,10,02,01,46,12.50
2022,10,02,01,47,12.50
2022,10,02,01,48,12.50
2022,10,02,01,49,12.50
2022,10,02,01,50,12.50
2022,10,02,01,51,12.40
2022,10,02,01,52,12.40
2022,10,02,01,53,12.40
2022,10,02,01,54,12.40
2022,10,02,01,55,12.40
2022,10,02,01,56,12.40
2022,10,02,01,57,12.40
2022,10,02,01,58,12.40
2022,10,02,01,59,12.40
2022,10,02,02,00,12.40
2022,10,02,02,01,12.40
2022,10,02,02,02,12.40
2022,10,02,02,03,12.40
2022,10,02,02,04,12.40
2022,10,02,02,05,12.40
2022,10,02,02,06,12.40
2022,10,02,02,07,12.40
2022,10,02,02,08,12.40
2022,10,02,02,09,12.40
2022,10,02,02,10,12.40
2022,10,02,02,11,12.40
2022,10,02,02,12,12.40
2022,10,02,02,13,12.40
2022,10,02,02,14,12.40
2022,10,02,02,15,12.40
2022,10,02,02,16,12.40
2022,10,02,02,17,12.40
2022,10,02,02,18,12.40
2022,10,02,02,19,12.40
2022,10,02,02,20,12.40
2022,10,02,02,21,12.40
2022,10,02,02,22,12.40
2022,10,02,02,23,12.40
2022,10,02,02,24,12.40
2022,10,02,02,25,12.30
2022,10,02,02,26,12.30
2022,10,02,02,27,12.30
2022,10,02,02,28,12.30
2022,10,02,02,29,12.30
2022,10,02,02,30,12.30
2022,10,02,02,31,12.30
2022,10,02,02,32,12.30
2022,10,02,02,33,12.30
2022,10,02,02,34,12.30
2022,10,02,02,35,12.30
2022,10,02,02,36,12.30
2022,10,02,02,37,12.30
2022,10,02,02,38,12.30
2022,10,02,02,39,12.30
2022,10,02,02,40,12.30
2022,10,02,02,41,12.30
2022,10,02,02,42,12.30
2022,10,02,02,43,12.30
2022,10,02,02,44,12.30
2022,10,02,02,45,12.30
2022,10,02,02,46,12.30
2022,10,02,02,47,12.30
2022,10,02,02,48,12.30
2022,10,02,02,49,12.30
2022,10,02,02,50,12.30
2022,10,02,02,51,12.30
2022,10,02,02,52,12.20
2022,10,02,02,53,12.20
2022,10,02,02,54,12.20
2022,10,02,02,55,12.20
2022,10,02,02,56,12.20
2022,10,02,02,57,12.20
2022,10,02,02,58,12.20
2022,10,02,02,59,12.20
2022,10,02,03,00,12.20
2022,10,02,03,01,12.20
2022,10,02,03,02,12.20
2022,10,02,03,03,12.20
2022,10,02,03,04,12.20
2022,10,02,03,05,12.20
2022,10,02,03,06,12.20
2022,10,02,03,07,12.20
2022,10,02,03,08,12.20
2022,10,02,03,09,12.20
2022,10,02,03,10,12.20
2022,10,02,03,11,12.20
2022,10,02,03,12,12.20
2022,10,02,03,13,12.20
2022,10,02,03,14,12.20
2022,10,02,03,15,12.20
2022,10,02,03,16,12.20
2022,10,02,03,17,12.20
2022,10,02,03,18,12.10
2022,10,02,03,19,12.10
2022,10,02,03,20,12.10
2022,10,02,03,21,12.10
2022,10,02,03,22,12.10
2022,10,02,03,23,12.10
2022,10,02,03,24,12.10
2022,10,02,03,25,12.10
2022,10,02,03,26,12.10
2022,10,02,03,27,12.10
2022,10,02,03,28,12.10
2022,10,02,03,29,12.00
2022,10,02,03,30,12.00
2022,10,02,03,31,12.00
2022,10,02,03,32,11.90
2022,10,02,03,33,11.90
2022,10,02,03,34,11.90
2022,10,02,03,35,11.90
2022,10,02,03,36,11.90
2022,10,02,03,37,11.90
2022,10,02,03,38,11.80
2022,10,02,03,39,11.80
2022,10,02,03,40,11.80
2022,10,02,03,41,11.80
2022,10,02,03,42,11.80
2022,10,02,03,43,11.80
2022,10,02,03,44,11.80
2022,10,02,03,45,11.70
2022,10,02,03,46,11.70
2022,10,02,03,47,11.70
2022,10,02,03,48,11.70
2022,10,02,03,49,11.70
2022,10,02,03,50,11.60
2022,10,02,03,51,11.60
2022,10,02,03,52,11.60
2022,10,02,03,53,11.60
2022,10,02,03,54,11.60
2022,10,02,03,55,11.60
2022,10,02,03,56,11.60
2022,10,02,03,57,11.60
2022,10,02,03,58,11.60
2022,10,02,03,59,11.60
2022,10,02,04,00,11.60
2022,10,02,04,01,11.60
2022,10,02,04,02,11.60
2022,10,02,04,03,11.60
2022,10,02,04,04,11.60
2022,10,02,04,05,11.60
2022,10,02,04,06,11.60
2022,10,02,04,07,11.60
2022,10,02,04,08,11.60
2022,10,02,04,09,11.60
2022,10,02,04,10,11.60
2022,10,02,04,11,11.60
2022,10,02,04,12,11.60
2022,10,02,04,13,11.60
2022,10,02,04,14,11.60
2022,10,02,04,15,11.60
2022,10,02,04,16,11.60
2022,10,02,04,17,11.50
2022,10,02,04,18,11.60
2022,10,02,04,19,11.60
2022,10,02,04,20,11.60
2022,10,02,04,21,11.60
2022,10,02,04,22,11.60
2022,10,02,04,23,11.60
2022,10,02,04,24,11.60
2022,10,02,04,25,11.60
2022,10,02,04,26,11.60
2022,10,02,04,27,11.60
2022,10,02,04,28,11.60
2022,10,02,04,29,11.60
2022,10,02,04,30,11.60
2022,10,02,04,31,11.60
2022,10,02,04,32,11.60
2022,10,02,04,33,11.60
2022,10,02,04,34,11.60
2022,10,02,04,35,11.60
2022,10,02,04,36,11.60
2022,10,02,04,37,11.60
2022,10,02,04,38,11.60
2022,10,02,04,39,11.60
2022,10,02,04,40,11.60
2022,10,02,04,41,11.60
2022,10,02,04,42,11.60
2022,10,02,04,43,11.60
2022,10,02,04,44,11.60
2022,10,02,04,45,11.60
2022,10,02,04,46,11.60
2022,10,02,04,47,11.60
2022,10,02,04,48,11.60
2022,10,02,04,49,11.60
2022,10,02,04,50,11.60
2022,10,02,04,51,11.60
2022,10,02,04,52,11.60
2022,10,02,04,53,11.60
2022,10,02,04,54,11.50
2022,10,02,04,55,11.50
2022,10,02,04,56,11.50
2022,10,02,04,57,11.50
2022,10,02,04,58,11.50
2022,10,02,04,59,11.50
2022,10,02,05,00,11.50
2022,10,02,05,01,11.60
2022,10,02,05,02,11.60
2022,10,02,05,03,11.60
2022,10,02,05,04,11.60
2022,10,02,05,05,11.60
2022,10,02,05,06,11.60
2022,10,02,05,07,11.60
2022,10,02,05,08,11.60
2022,10,02,05,09,11.60
2022,10,02,05,10,11.60
2022,10,02,05,11,11.70
2022,10,02,05,12,11.70
2022,10,02,05,13,11.70
2022,10,02,05,14,11.70
2022,10,02,05,15,11.70
2022,10,02,05,16,11.70
2022,10,02,05,17,11.70
2022,10,02,05,18,11.70
2022,10,02,05,19,11.70
2022,10,02,05,20,11.70
2022,10,02,05,21,11.80
2022,10,02,05,22,11.80
2022,10,02,05,23,11.80
2022,10,02,05,24,11.80
2022,10,02,05,25,11.80
2022,10,02,05,26,11.80
2022,10,02,05,27,11.80
2022,10,02,05,28,11.80
2022,10,02,05,29,11.80
2022,10,02,05,30,11.80
2022,10,02,05,31,11.80
2022,10,02,05,32,11.80
2022,10,02,05,33,11.80
2022,10,02,05,34,11.80
2022,10,02,05,35,11.80
2022,10,02,05,36,11.80
2022,10,02,05,37,11.80
2022,10,02,05,38,11.80
2022,10,02,05,39,11.80
2022,10,02,05,40,11.80
2022,10,02,05,41,11.80
2022,10,02,05,42,11.80
2022,10,02,05,43,11.90
2022,10,02,05,44,11.90
2022,10,02,05,45,11.90
2022,10,02,05,46,11.90
2022,10,02,05,47,11.90
2022,10,02,05,48,11.90
2022,10,02,05,49,12.00
2022,10,02,05,50,12.00
2022,10,02,05,51,12.00
2022,10,02,05,52,12.10
2022,10,02,05,53,12.10
2022,10,02,05,54,12.10
2022,10,02,05,55,12.10
2022,10,02,05,56,12.10
2022,10,02,05,57,12.10
2022,10,02,05,58,12.10
2022,10,02,05,59,12.10
2022,10,02,06,00,12.10
2022,10,02,06,01,12.10
2022,10,02,06,02,12.10
2022,10,02,06,03,12.10
2022,10,02,06,04,12.10
2022,10,02,06,05,12.20
2022,10,02,06,06,12.20
2022,10,02,06,07,12.20
2022,10,02,06,08,12.20
2022,10,02,06,09,12.20
2022,10,02,06,10,12.20
2022,10,02,06,11,12.10
2022,10,02,06,12,12.10
2022,10,02,06,13,12.10
2022,10,02,06,14,12.10
2022,10,02,06,15,12.10
2022,10,02,06,16,12.10
2022,10,02,06,17,12.10
2022,10,02,06,18,12.10
2022,10,02,06,19,12.00
2022,10,02,06,20,12.00
2022,10,02,06,21,12.00
2022,10,02,06,22,12.00
2022,10,02,06,23,12.00
2022,10,02,06,24,12.00
2022,10,02,06,25,12.00
2022,10,02,06,26,12.00
2022,10,02,06,27,12.00
2022,10,02,06,28,11.90
2022,10,02,06,29,11.90
2022,10,02,06,30,11.90
2022,10,02,06,31,11.90
2022,10,02,06,32,11.90
2022,10,02,06,33,11.90
2022,10,02,06,34,11.90
2022,10,02,06,35,11.90
2022,10,02,06,36,11.90
2022,10,02,06,37,11.90
2022,10,02,06,38,11.90
2022,10,02,06,39,11.90
2022,10,02,06,40,11.90
2022,10,02,06,41,11.90
2022,10,02,06,42,11.90
2022,10,02,06,43,11.90
2022,10,02,06,44,11.80
2022,10,02,06,45,11.80
2022,10,02,06,46,11.80
2022,10,02,06,47,11.80
2022,10,02,06,48,11.80
2022,10,02,06,49,11.80
2022,10,02,06,50,11.80
2022,10,02,06,51,11.80
2022,10,02,06,52,11.80
2022,10,02,06,53,11.80
2022,10,02,06,54,11.80
2022,10,02,06,55,11.80
2022,10,02,06,56,11.80
2022,10,02,06,57,11.80
2022,10,02,06,58,11.80
2022,10,02,06,59,11.70
2022,10,02,07,00,11.70
2022,10,02,07,01,11.70
2022,10,02,07,02,11.70
2022,10,02,07,03,11.70
2022,10,02,07,04,11.70
2022,10,02,07,05,11.70
2022,10,02,07,06,11.70
2022,10,02,07,07,11.70
2022,10,02,07,08,11.70
2022,10,02,07,09,11.60
2022,10,02,07,10,11.60
2022,10,02,07,11,11.60
2022,10,02,07,12,11.60
2022,10,02,07,13,11.60
2022,10,02,07,14,11.60
2022,10,02,07,15,11.60
2022,10,02,07,16,11.60
2022,10,02,07,17,11.60
2022,10,02,07,18,11.60
2022,10,02,07,19,11.60
2022,10,02,07,20,11.60
2022,10,02,07,21,11.60
2022,10,02,07,22,11.60
2022,10,02,07,23,11.60
2022,10,02,07,24,11.50
2022,10,02,07,25,11.50
2022,10,02,07,26,11.50
2022,10,02,07,27,11.50
2022,10,02,07,28,11.50
2022,10,02,07,29,11.50
2022,10,02,07,30,11.50
2022,10,02,07,31,11.50
2022,10,02,07,32,11.50
2022,10,02,07,33,11.50
2022,10,02,07,34,11.50
2022,10,02,07,35,11.50
2022,10,02,07,36,11.50
2022,10,02,07,37,11.50
2022,10,02,07,38,11.50
2022,10,02,07,39,11.50
2022,10,02,07,40,11.50
2022,10,02,07,41,11.50
2022,10,02,07,42,11.50
2022,10,02,07,43,11.50
2022,10,02,07,44,11.50
2022,10,02,07,45,11.50
2022,10,02,07,46,11.50
2022,10,02,07,47,11.50
2022,10,02,07,48,11.50
2022,10,02,07,49,11.50
2022,10,02,07,50,11.50
2022,10,02,07,51,11.50
2022,10,02,07,52,11.50
2022,10,02,07,53,11.50
2022,10,02,07,54,11.50
2022,10,02,07,55,11.50
2022,10,02,07,56,11.50
2022,10,02,07,57,11.50
2022,10,02,07,58,11.60
2022,10,02,07,59,11.60
2022,10,02,08,00,11.60
2022,10,02,08,01,11.60
2022,10,02,08,02,11.60
2022,10,02,08,03,11.60
2022,10,02,08,04,11.60
2022,10,02,08,05,11.60
2022,10,02,08,06,11.60
2022,10,02,08,07,11.60
2022,10,02,08,08,11.60
2022,10,02,08,09,11.70
2022,10,02,08,10,11.70
2022,10,02,08,11,11.70
2022,10,02,08,12,11.70
2022,10,02,08,13,11.80
2022,10,02,08,14,11.80
2022,10,02,08,15,11.80
2022,10,02,08,16,11.80
2022,10,02,08,17,11.80
2022,10,02,08,18,11.80
2022,10,02,08,19,11.80
2022,10,02,08,20,11.90
2022,10,02,08,21,11.90
2022,10,02,08,22,11.90
2022,10,02,08,23,11.90
2022,10,02,08,24,11.90
2022,10,02,08,25,12.00
2022,10,02,08,26,12.00
2022,10,02,08,27,12.00
2022,10,02,08,28,12.10
2022,10,02,08,29,12.10
2022,10,02,08,30,12.10
2022,10,02,08,31,12.10
2022,10,02,08,32,12.10
2022,10,02,08,33,12.20
2022,10,02,08,34,12.20
2022,10,02,08,35,12.20
2022,10,02,08,36,12.20
2022,10,02,08,37,12.30
2022,10,02,08,38,12.30
2022,10,02,08,39,12.40
2022,10,02,08,40,12.40
2022,10,02,08,41,12.50
2022,10,02,08,42,12.60
2022,10,02,08,43,12.60
2022,10,02,08,44,12.70
2022,10,02,08,45,12.80
2022,10,02,08,46,12.80
2022,10,02,08,47,12.90
2022,10,02,08,48,13.00
2022,10,02,08,49,13.00
2022,10,02,08,50,13.10
2022,10,02,08,51,13.20
2022,10,02,08,52,13.20
2022,10,02,08,53,13.30
2022,10,02,08,54,13.30
2022,10,02,08,55,13.40
2022,10,02,08,56,13.50
2022,10,02,08,57,13.60
2022,10,02,08,58,13.60
2022,10,02,08,59,13.70
2022,10,02,09,00,13.80
2022,10,02,09,01,13.80
2022,10,02,09,02,13.90
2022,10,02,09,03,14.00
2022,10,02,09,04,14.00
2022,10,02,09,05,14.10
2022,10,02,09,06,14.10
2022,10,02,09,07,14.20
2022,10,02,09,08,14.30
2022,10,02,09,09,14.30
2022,10,02,09,10,14.40
2022,10,02,09,11,14.50
2022,10,02,09,12,14.60
2022,10,02,09,13,14.70
2022,10,02,09,14,14.70
2022,10,02,09,15,14.80
2022,10,02,09,16,14.90
2022,10,02,09,17,15.00
2022,10,02,09,18,15.00
2022,10,02,09,19,15.10
2022,10,02,09,20,15.20
2022,10,02,09,21,15.30
2022,10,02,09,22,15.40
2022,10,02,09,23,15.50
2022,10,02,09,24,15.60
2022,10,02,09,25,15.60
2022,10,02,09,26,15.70
2022,10,02,09,27,15.70
2022,10,02,09,28,15.80
2022,10,02,09,29,15.80
2022,10,02,09,30,15.90
2022,10,02,09,31,15.90
2022,10,02,09,32,16.00
2022,10,02,09,33,16.00
2022,10,02,09,34,16.10
2022,10,02,09,35,16.10
2022,10,02,09,36,16.10
2022,10,02,09,37,16.20
2022,10,02,09,38,16.20
2022,10,02,09,39,16.20
2022,10,02,09,40,16.30
2022,10,02,09,41,16.30
2022,10,02,09,42,16.30
2022,10,02,09,43,16.40
2022,10,02,09,44,16.40
2022,10,02,09,45,16.40
2022,10,02,09,46,16.50
2022,10,02,09,47,16.50
2022,10,02,09,48,16.50
2022,10,02,09,49,16.60
2022,10,02,09,50,16.60
2022,10,02,09,51,16.70
2022,10,02,09,52,16.70
2022,10,02,09,53,16.70
2022,10,02,09,54,16.80
2022,10,02,09,55,16.80
2022,10,02,09,56,16.80
2022,10,02,09,57,16.80
2022,10,02,09,58,16.90
2022,10,02,09,59,16.90
2022,10,02,10,00,16.90
2022,10,02,10,01,16.90
2022,10,02,10,02,17.00
2022,10,02,10,03,17.00
2022,10,02,10,04,17.00
2022,10,02,10,05,17.10
2022,10,02,10,06,17.10
2022,10,02,10,07,17.10
2022,10,02,10,08,17.20
2022,10,02,10,09,17.20
2022,10,02,10,10,17.20
2022,10,02,10,11,17.20
2022,10,02,10,12,17.30
2022,10,02,10,13,17.30
2022,10,02,10,14,17.30
2022,10,02,10,15,17.30
2022,10,02,10,16,17.30
2022,10,02,10,17,17.40
2022,10,02,10,18,17.40
2022,10,02,10,19,17.40
2022,10,02,10,20,17.50
2022,10,02,10,21,17.50
2022,10,02,10,22,17.60
2022,10,02,10,23,17.60
2022,10,02,10,24,17.70
2022,10,02,10,25,17.70
2022,10,02,10,26,17.70
2022,10,02,10,27,17.80
2022,10,02,10,28,17.80
2022,10,02,10,29,17.80
2022,10,02,10,30,17.90
2022,10,02,10,31,17.90
2022,10,02,10,32,17.90
2022,10,02,10,33,18.00
2022,10,02,10,34,18.10
2022,10,02,10,35,18.10
2022,10,02,10,36,18.10
2022,10,02,10,37,18.20
2022,10,02,10,38,18.20
2022,10,02,10,39,18.30
2022,10,02,10,40,18.30
2022,10,02,10,41,18.30
2022,10,02,10,42,18.30
2022,10,02,10,43,18.30
2022,10,02,10,44,18.40
2022,10,02,10,45,18.40
2022,10,02,10,46,18.40
2022,10,02,10,47,18.40
2022,10,02,10,48,18.50
2022,10,02,10,49,18.50
2022,10,02,10,50,18.60
2022,10,02,10,51,18.60
2022,10,02,10,52,18.60
2022,10,02,10,53,18.60
2022,10,02,10,54,18.70
2022,10,02,10,55,18.70
2022,10,02,10,56,18.70
2022,10,02,10,57,18.70
2022,10,02,10,58,18.70
2022,10,02,10,59,18.70
2022,10,02,11,00,18.70
2022,10,02,11,01,18.70
2022,10,02,11,02,18.70
2022,10,02,11,03,18.70
2022,10,02,11,04,18.70
2022,10,02,11,05,18.70
2022,10,02,11,06,18.70
2022,10,02,11,07,18.80
2022,10,02,11,08,18.80
2022,10,02,11,09,18.80
2022,10,02,11,10,18.80
2022,10,02,11,11,18.80
2022,10,02,11,12,18.90
2022,10,02,11,13,18.90
2022,10,02,11,14,18.90
2022,10,02,11,15,18.90
2022,10,02,11,16,19.00
2022,10,02,11,17,19.00
2022,10,02,11,18,19.00
2022,10,02,11,19,19.00
2022,10,02,11,20,19.10
2022,10,02,11,21,19.10
2022,10,02,11,22,19.10
2022,10,02,11,23,19.10
2022,10,02,11,24,19.10
2022,10,02,11,25,19.10
2022,10,02,11,26,19.10
2022,10,02,11,27,19.20
2022,10,02,11,28,19.20
2022,10,02,11,29,19.20
2022,10,02,11,30,19.30
2022,10,02,11,31,19.30
2022,10,02,11,32,19.30
2022,10,02,11,33,19.30
2022,10,02,11,34,19.30
2022,10,02,11,35,19.40
2022,10,02,11,36,19.40
2022,10,02,11,37,19.40
2022,10,02,11,38,19.50
2022,10,02,11,39,19.50
2022,10,02,11,40,19.50
2022,10,02,11,41,19.60
2022,10,02,11,42,19.60
2022,10,02,11,43,19.60
2022,10,02,11,44,19.60
2022,10,02,11,45,19.60
2022,10,02,11,46,19.60
2022,10,02,11,47,19.60
2022,10,02,11,48,19.60
2022,10,02,11,49,19.70
2022,10,02,11,50,19.70
2022,10,02,11,51,19.70
2022,10,02,11,52,19.70
2022,10,02,11,53,19.80
2022,10,02,11,54,19.80
2022,10,02,11,55,19.80
2022,10,02,11,56,19.90
2022,10,02,11,57,19.90
2022,10,02,11,58,19.90
2022,10,02,11,59,20.00
2022,10,02,12,00,20.00
2022,10,02,12,01,20.00
2022,10,02,12,02,20.00
2022,10,02,12,03,20.00
2022,10,02,12,04,20.00
2022,10,02,12,05,20.00
2022,10,02,12,06,20.10
2022,10,02,12,07,20.10
2022,10,02,12,08,20.10
2022,10,02,12,09,20.10
2022,10,02,12,10,20.20
2022,10,02,12,11,20.20
2022,10,02,12,12,20.20
2022,10,02,12,13,20.20
2022,10,02,12,14,20.20
2022,10,02,12,15,20.20
2022,10,02,12,16,20.20
2022,10,02,12,17,20.20
2022,10,02,12,18,20.20
2022,10,02,12,19,20.20
2022,10,02,12,20,20.30
2022,10,02,12,21,20.30
2022,10,02,12,22,20.30
2022,10,02,12,23,20.30
2022,10,02,12,24,20.30
2022,10,02,12,25,20.30
2022,10,02,12,26,20.40
2022,10,02,12,27,20.40
2022,10,02,12,28,20.50
2022,10,02,12,29,20.50
2022,10,02,12,30,20.50
2022,10,02,12,31,20.60
2022,10,02,12,32,20.60
2022,10,02,12,33,20.60
2022,10,02,12,34,20.60
2022,10,02,12,35,20.60
2022,10,02,12,36,20.70
2022,10,02,12,37,20.70
2022,10,02,12,38,20.70
2022,10,02,12,39,20.70
2022,10,02,12,40,20.80
2022,10,02,12,41,20.80
2022,10,02,12,42,20.90
2022,10,02,12,43,20.90
2022,10,02,12,44,20.90
2022,10,02,12,45,21.00
2022,10,02,12,46,21.10
2022,10,02,12,47,21.10
2022,10,02,12,48,21.10
2022,10,02,12,49,21.10
2022,10,02,12,50,21.20
2022,10,02,12,51,21.20
2022,10,02,12,52,21.20
2022,10,02,12,53,21.20
2022,10,02,12,54,21.20
2022,10,02,12,55,21.20
2022,10,02,12,56,21.20
2022,10,02,12,57,21.20
2022,10,02,12,58,21.30
2022,10,02,12,59,21.30
2022,10,02,13,00,21.30
2022,10,02,13,01,21.30
2022,10,02,13,02,21.20
2022,10,02,13,03,21.20
2022,10,02,13,04,21.20
2022,10,02,13,05,21.20
2022,10,02,13,06,21.20
2022,10,02,13,07,21.20
2022,10,02,13,08,21.20
2022,10,02,13,09,21.20
2022,10,02,13,10,21.20
2022,10,02,13,11,21.20
2022,10,02,13,12,21.20
2022,10,02,13,13,21.10
2022,10,02,13,14,21.10
2022,10,02,13,15,21.10
2022,10,02,13,16,21.10
2022,10,02,13,17,21.10
2022,10,02,13,18,21.10
2022,10,02,13,19,21.10
2022,10,02,13,20,21.10
2022,10,02,13,21,21.20
2022,10,02,13,22,21.20
2022,10,02,13,23,21.20
2022,10,02,13,24,21.20
2022,10,02,13,25,21.20
2022,10,02,13,26,21.20
2022,10,02,13,27,21.30
2022,10,02,13,28,21.30
2022,10,02,13,29,21.30
2022,10,02,13,30,21.30
2022,10,02,13,31,21.40
2022,10,02,13,32,21.40
2022,10,02,13,33,21.40
2022,10,02,13,34,21.40
2022,10,02,13,35,21.50
2022,10,02,13,36,21.50
2022,10,02,13,37,21.60
2022,10,02,13,38,21.60
2022,10,02,13,39,21.60
2022,10,02,13,40,21.60
2022,10,02,13,41,21.60
2022,10,02,13,42,21.60
2022,10,02,13,43,21.60
2022,10,02,13,44,21.60
2022,10,02,13,45,21.70
2022,10,02,13,46,21.70
2022,10,02,13,47,21.70
2022,10,02,13,48,21.70
2022,10,02,13,49,21.80
2022,10,02,13,50,21.80
2022,10,02,13,51,21.80
2022,10,02,13,52,21.80
2022,10,02,13,53,21.80
2022,10,02,13,54,21.80
2022,10,02,13,55,21.80
2022,10,02,13,56,21.80
2022,10,02,13,57,21.80
2022,10,02,13,58,21.80
2022,10,02,13,59,21.80
2022,10,02,14,00,21.80
2022,10,02,14,01,21.80
2022,10,02,14,02,21.80
2022,10,02,14,03,21.80
2022,10,02,14,04,21.80
2022,10,02,14,05,21.90
2022,10,02,14,06,21.90
2022,10,02,14,07,21.90
2022,10,02,14,08,22.00
2022,10,02,14,09,22.00
2022,10,02,14,10,22.00
2022,10,02,14,11,22.10
2022,10,02,14,12,22.10
2022,10,02,14,13,22.10
2022,10,02,14,14,22.10
2022,10,02,14,15,22.10
2022,10,02,14,16,22.20
2022,10,02,14,17,22.20
2022,10,02,14,18,22.20
2022,10,02,14,19,22.20
2022,10,02,14,20,22.20
2022,10,02,14,21,22.20
2022,10,02,14,22,22.20
2022,10,02,14,23,22.20
2022,10,02,14,24,22.30
2022,10,02,14,25,22.30
2022,10,02,14,26,22.30
2022,10,02,14,27,22.30
2022,10,02,14,28,22.30
2022,10,02,14,29,22.30
2022,10,02,14,30,22.30
2022,10,02,14,31,22.30
2022,10,02,14,32,22.30
2022,10,02,14,33,22.30
2022,10,02,14,34,22.30
2022,10,02,14,35,22.20
2022,10,02,14,36,22.20
2022,10,02,14,37,22.20
2022,10,02,14,38,22.20
2022,10,02,14,39,22.20
2022,10,02,14,40,22.20
2022,10,02,14,41,22.20
2022,10,02,14,42,22.20
2022,10,02,14,43,22.30
2022,10,02,14,44,22.30
2022,10,02,14,45,22.30
2022,10,02,14,46,22.30
2022,10,02,14,47,22.30
2022,10,02,14,48,22.30
2022,10,02,14,49,22.40
2022,10,02,14,50,22.40
2022,10,02,14,51,22.50
2022,10,02,14,52,22.50
2022,10,02,14,53,22.60
2022,10,02,14,54,22.70
2022,10,02,14,55,22.70
2022,10,02,14,56,22.80
2022,10,02,14,57,22.80
2022,10,02,14,58,22.80
2022,10,02,14,59,22.90
2022,10,02,15,00,22.90
2022,10,02,15,01,22.90
2022,10,02,15,02,23.00
2022,10,02,15,03,23.00
2022,10,02,15,04,23.00
2022,10,02,15,05,23.10
2022,10,02,15,06,23.10
2022,10,02,15,07,23.10
2022,10,02,15,08,23.10
2022,10,02,15,09,23.10
2022,10,02,15,10,23.10
2022,10,02,15,11,23.20
2022,10,02,15,12,23.20
2022,10,02,15,13,23.20
2022,10,02,15,14,23.20
2022,10,02,15,15,23.20
2022,10,02,15,16,23.20
2022,10,02,15,17,23.20
2022,10,02,15,18,23.20
2022,10,02,15,19,23.20
2022,10,02,15,20,23.20
2022,10,02,15,21,23.20
2022,10,02,15,22,23.20
2022,10,02,15,23,23.20
2022,10,02,15,24,23.20
2022,10,02,15,25,23.20
2022,10,02,15,26,23.20
2022,10,02,15,27,23.20
2022,10,02,15,28,23.20
2022,10,02,15,29,23.20
2022,10,02,15,30,23.20
2022,10,02,15,31,23.20
2022,10,02,15,32,23.20
2022,10,02,15,33,23.20
2022,10,02,15,34,23.20
2022,10,02,15,35,23.20
2022,10,02,15,36,23.20
2022,10,02,15,37,23.20
2022,10,02,15,38,23.20
2022,10,02,15,39,23.20
2022,10,02,15,40,23.20
2022,10,02,15,41,23.20
2022,10,02,15,42,23.10
2022,10,02,15,43,23.10
2022,10,02,15,44,23.10
2022,10,02,15,45,23.10
2022,10,02,15,46,23.20
2022,10,02,15,47,23.20
2022,10,02,15,48,23.20
2022,10,02,15,49,23.20
2022,10,02,15,50,23.20
2022,10,02,15,51,23.30
2022,10,02,15,52,23.30
2022,10,02,15,53,23.30
2022,10,02,15,54,23.40
2022,10,02,15,55,23.40
2022,10,02,15,56,23.50
2022,10,02,15,57,23.50
2022,10,02,15,58,23.60
2022,10,02,15,59,23.60
2022,10,02,16,00,23.60
2022,10,02,16,01,23.60
2022,10,02,16,02,23.60
2022,10,02,16,03,23.60
2022,10,02,16,04,23.60
2022,10,02,16,05,23.60
2022,10,02,16,06,23.70
2022,10,02,16,07,23.70
2022,10,02,16,08,23.70
2022,10,02,16,09,23.70
2022,10,02,16,10,23.80
2022,10,02,16,11,23.80
2022,10,02,16,12,23.80
2022,10,02,16,13,23.80
2022,10,02,16,14,23.80
2022,10,02,16,15,23.80
2022,10,02,16,16,23.80
2022,10,02,16,17,23.90
2022,10,02,16,18,23.90
2022,10,02,16,19,23.90
2022,10,02,16,20,24.00
2022,10,02,16,21,24.00
2022,10,02,16,22,24.00
2022,10,02,16,23,24.00
2022,10,02,16,24,24.00
2022,10,02,16,25,24.00
2022,10,02,16,26,24.00
2022,10,02,16,27,23.90
2022,10,02,16,28,23.80
2022,10,02,16,29,23.80
2022,10,02,16,30,23.70
2022,10,02,16,31,23.70
2022,10,02,16,32,23.60
2022,10,02,16,33,23.60
2022,10,02,16,34,23.60
2022,10,02,16,35,23.60
2022,10,02,16,36,23.60
2022,10,02,16,37,23.60
2022,10,02,16,38,23.70
2022,10,02,16,39,23.70
2022,10,02,16,40,23.70
2022,10,02,16,41,23.60
2022,10,02,16,42,23.60
2022,10,02,16,43,23.60
2022,10,02,16,44,23.60
2022,10,02,16,45,23.60
2022,10,02,16,46,23.60
2022,10,02,16,47,23.60
2022,10,02,16,48,23.60
2022,10,02,16,49,23.60
2022,10,02,16,50,23.50
2022,10,02,16,51,23.50
2022,10,02,16,52,23.50
2022,10,02,16,53,23.50
2022,10,02,16,54,23.50
2022,10,02,16,55,23.50
2022,10,02,16,56,23.50
2022,10,02,16,57,23.50
2022,10,02,16,58,23.50
2022,10,02,16,59,23.60
2022,10,02,17,00,23.60
2022,10,02,17,01,23.60
2022,10,02,17,02,23.60
2022,10,02,17,03,23.60
2022,10,02,17,04,23.70
2022,10,02,17,05,23.70
2022,10,02,17,06,23.70
2022,10,02,17,07,23.70
2022,10,02,17,08,23.80
2022,10,02,17,09,23.80
2022,10,02,17,10,23.80
2022,10,02,17,11,23.80
2022,10,02,17,12,23.80
2022,10,02,17,13,23.80
2022,10,02,17,14,23.80
2022,10,02,17,15,23.80
2022,10,02,17,16,23.80
2022,10,02,17,17,23.80
2022,10,02,17,18,23.70
2022,10,02,17,19,23.70